Hourly Weather Bolshie Kozly

Today, 18 June, Friday

Time Temperature Precipitation Wind Pressure Humidity
00:00 +16°C° 0 mm 2 mps 753 mmHg 88%
01:00 +16°C° 0 mm 2 mps 753 mmHg 89%
02:00 +16°C° 0 mm 2 mps 753 mmHg 90%
03:00 +16°C° 0 mm 2 mps 753 mmHg 89%
04:00 +16°C° 0 mm 2 mps 753 mmHg 89%
05:00 +16°C° 0 mm 2 mps 753 mmHg 89%
06:00 +18°C° 0 mm 2 mps 753 mmHg 83%
07:00 +19°C° 0 mm 2 mps 753 mmHg 77%
08:00 +21°C° 0 mm 2 mps 753 mmHg 71%
09:00 +24°C° 0 mm 2 mps 753 mmHg 67%
10:00 +25°C° 0 mm 3 mps 753 mmHg 63%
11:00 +26°C° 0 mm 3 mps 753 mmHg 59%
12:00 +26°C° 0 mm 3 mps 753 mmHg 57%
13:00 +27°C° 0 mm 3 mps 753 mmHg 55%
14:00 +27°C° 0 mm 3 mps 753 mmHg 53%
15:00 +27°C° 0 mm 3 mps 753 mmHg 56%
16:00 +27°C° 0 mm 3 mps 752 mmHg 59%
17:00 +27°C° 0 mm 3 mps 752 mmHg 62%
18:00 +25°C° 0 mm 3 mps 752 mmHg 68%
19:00 +22°C° 0 mm 3 mps 752 mmHg 73%
20:00 +21°C° 0 mm 2 mps 752 mmHg 79%
21:00 +20°C° 0 mm 2 mps 752 mmHg 80%
22:00 +18°C° 0 mm 2 mps 752 mmHg 82%
23:00 +17°C° 0 mm 2 mps 752 mmHg 83%

Tomorrow, 19 June, Saturday

Time Temperature Precipitation Wind Pressure Humidity
00:00 +17°C° 0 mm 2 mps 752 mmHg 85%
01:00 +17°C° 0 mm 2 mps 752 mmHg 88%
02:00 +16°C° 0 mm 2 mps 752 mmHg 90%
03:00 +16°C° 0 mm 2 mps 752 mmHg 91%
04:00 +16°C° 0 mm 2 mps 752 mmHg 91%
05:00 +16°C° 0 mm 2 mps 752 mmHg 91%
06:00 +18°C° 0 mm 3 mps 752 mmHg 87%
07:00 +20°C° 0 mm 3 mps 752 mmHg 83%
08:00 +22°C° 0 mm 3 mps 752 mmHg 78%
09:00 +24°C° 0 mm 3 mps 752 mmHg 74%
10:00 +26°C° 0 mm 3 mps 752 mmHg 69%
11:00 +27°C° 0 mm 3 mps 752 mmHg 65%
12:00 +28°C° 0 mm 3 mps 752 mmHg 62%
13:00 +28°C° 0 mm 3 mps 751 mmHg 59%
14:00 +29°C° 0 mm 3 mps 751 mmHg 56%
15:00 +28°C° 0 mm 3 mps 751 mmHg 60%
16:00 +28°C° 0 mm 3 mps 751 mmHg 65%
17:00 +27°C° 0 mm 3 mps 751 mmHg 69%
18:00 +26°C° 0 mm 3 mps 750 mmHg 73%
19:00 +24°C° 0 mm 3 mps 750 mmHg 78%
20:00 +22°C° 0 mm 3 mps 750 mmHg 82%
21:00 +21°C° 0 mm 3 mps 750 mmHg 84%
22:00 +20°C° 0 mm 3 mps 750 mmHg 87%
23:00 +19°C° 0 mm 3 mps 750 mmHg 89%

Day after tomorrow, 20 June, Sunday

Time Temperature Precipitation Wind Pressure Humidity
00:00 +18°C° 0 mm 3 mps 750 mmHg 90%
01:00 +18°C° 0 mm 2 mps 750 mmHg 91%
02:00 +18°C° 0 mm 2 mps 750 mmHg 92%
03:00 +18°C° 0 mm 2 mps 750 mmHg 92%
04:00 +18°C° 0 mm 2 mps 750 mmHg 93%
05:00 +18°C° 0 mm 2 mps 750 mmHg 93%
06:00 +20°C° 0 mm 2 mps 750 mmHg 88%
07:00 +21°C° 0 mm 3 mps 750 mmHg 83%
08:00 +24°C° 0 mm 3 mps 750 mmHg 78%
09:00 +25°C° 0.5 mm 3 mps 750 mmHg 76%
10:00 +26°C° 0.5 mm 4 mps 750 mmHg 73%
11:00 +27°C° 0.5 mm 4 mps 749 mmHg 70%
12:00 +27°C° 0.8 mm 4 mps 749 mmHg 70%
13:00 +27°C° 0.8 mm 4 mps 749 mmHg 70%
14:00 +27°C° 0.8 mm 4 mps 749 mmHg 71%
15:00 +27°C° 0.8 mm 4 mps 748 mmHg 73%
16:00 +27°C° 0.8 mm 3 mps 748 mmHg 76%
17:00 +26°C° 0.8 mm 3 mps 748 mmHg 78%
18:00 +26°C° 0.2 mm 3 mps 748 mmHg 82%
19:00 +25°C° 0.2 mm 2 mps 748 mmHg 85%
20:00 +24°C° 0.2 mm 2 mps 747 mmHg 88%
21:00 +23°C° 0 mm 2 mps 747 mmHg 90%
22:00 +21°C° 0 mm 3 mps 747 mmHg 91%
23:00 +20°C° 0 mm 3 mps 747 mmHg 93%

21 June, Monday

Time Temperature Precipitation Wind Pressure Humidity
00:00 +20°C° 0 mm 3 mps 747 mmHg 93%
01:00 +19°C° 0 mm 3 mps 747 mmHg 93%
02:00 +18°C° 0 mm 3 mps 747 mmHg 93%
03:00 +18°C° 0 mm 3 mps 747 mmHg 93%
04:00 +18°C° 0 mm 3 mps 747 mmHg 93%
05:00 +17°C° 0 mm 3 mps 747 mmHg 94%
06:00 +19°C° 0 mm 3 mps 747 mmHg 88%
07:00 +21°C° 0 mm 4 mps 747 mmHg 83%
08:00 +22°C° 0 mm 4 mps 747 mmHg 78%
09:00 +23°C° 0 mm 4 mps 747 mmHg 72%
10:00 +25°C° 0 mm 5 mps 746 mmHg 67%
11:00 +27°C° 0 mm 5 mps 746 mmHg 61%
12:00 +27°C° 0 mm 5 mps 746 mmHg 61%
13:00 +28°C° 0 mm 5 mps 746 mmHg 60%
14:00 +28°C° 0 mm 5 mps 745 mmHg 60%
15:00 +28°C° 0.4 mm 5 mps 745 mmHg 64%
16:00 +27°C° 0.4 mm 4 mps 745 mmHg 67%
17:00 +27°C° 0.4 mm 4 mps 745 mmHg 71%
18:00 +26°C° 0.3 mm 3 mps 745 mmHg 76%
19:00 +25°C° 0.3 mm 3 mps 744 mmHg 80%
20:00 +24°C° 0.3 mm 3 mps 744 mmHg 85%
21:00 +22°C° 0 mm 3 mps 744 mmHg 87%
22:00 +21°C° 0 mm 2 mps 744 mmHg 90%
23:00 +20°C° 0 mm 2 mps 744 mmHg 92%

22 June, Tuesday

Time Temperature Precipitation Wind Pressure Humidity
00:00 +20°C° 0 mm 2 mps 744 mmHg 92%
01:00 +19°C° 0 mm 2 mps 744 mmHg 93%
02:00 +19°C° 0 mm 2 mps 744 mmHg 94%
03:00 +19°C° 0 mm 2 mps 744 mmHg 94%
04:00 +19°C° 0 mm 2 mps 744 mmHg 94%
05:00 +19°C° 0 mm 2 mps 744 mmHg 94%
06:00 +20°C° 0 mm 3 mps 744 mmHg 90%
07:00 +22°C° 0 mm 4 mps 744 mmHg 85%
08:00 +25°C° 0 mm 4 mps 745 mmHg 81%
09:00 +26°C° 0 mm 5 mps 745 mmHg 76%
10:00 +27°C° 0 mm 5 mps 745 mmHg 71%
11:00 +28°C° 0 mm 5 mps 745 mmHg 67%
12:00 +28°C° 0.3 mm 5 mps 745 mmHg 66%
13:00 +29°C° 0.3 mm 5 mps 745 mmHg 66%
14:00 +29°C° 0.3 mm 4 mps 745 mmHg 65%
15:00 +29°C° 0.4 mm 4 mps 745 mmHg 65%
16:00 +29°C° 0.4 mm 3 mps 745 mmHg 65%
17:00 +30°C° 0.4 mm 3 mps 745 mmHg 65%
18:00 +28°C° 0.1 mm 3 mps 745 mmHg 70%
19:00 +27°C° 0.1 mm 3 mps 745 mmHg 75%
20:00 +26°C° 0.1 mm 2 mps 745 mmHg 80%
21:00 +25°C° 0 mm 2 mps 745 mmHg 82%
22:00 +24°C° 0 mm 2 mps 745 mmHg 84%
23:00 +23°C° 0 mm 2 mps 746 mmHg 86%

23 June, Wednesday

Time Temperature Precipitation Wind Pressure Humidity
00:00 +23°C° 0 mm 2 mps 746 mmHg 87%
01:00 +21°C° 0 mm 2 mps 746 mmHg 88%
02:00 +21°C° 0 mm 2 mps 746 mmHg 89%
03:00 +21°C° 0.1 mm 2 mps 746 mmHg 90%
04:00 +21°C° 0.1 mm 2 mps 746 mmHg 91%
05:00 +21°C° 0.1 mm 2 mps 746 mmHg 92%
06:00 +23°C° 0 mm 2 mps 746 mmHg 87%
07:00 +25°C° 0 mm 3 mps 746 mmHg 83%
08:00 +26°C° 0 mm 3 mps 746 mmHg 79%
09:00 +27°C° 0 mm 4 mps 746 mmHg 73%
10:00 +28°C° 0 mm 4 mps 746 mmHg 68%
11:00 +29°C° 0 mm 4 mps 747 mmHg 62%
12:00 +30°C° 0 mm 4 mps 746 mmHg 59%
13:00 +30°C° 0 mm 4 mps 746 mmHg 56%
14:00 +32°C° 0 mm 4 mps 746 mmHg 53%
15:00 +31°C° 0 mm 3 mps 746 mmHg 55%
16:00 +31°C° 0 mm 3 mps 746 mmHg 58%
17:00 +31°C° 0 mm 3 mps 746 mmHg 60%
18:00 +29°C° 0.2 mm 3 mps 746 mmHg 68%
19:00 +28°C° 0.2 mm 3 mps 745 mmHg 75%
20:00 +26°C° 0.2 mm 3 mps 745 mmHg 83%
21:00 +25°C° 0.6 mm 3 mps 745 mmHg 84%
22:00 +23°C° 0.6 mm 2 mps 746 mmHg 85%
23:00 +21°C° 0.6 mm 2 mps 746 mmHg 86%
Show more